Theta_e
344 346 348 347 346 348 351 357 355 365 359 353 354 354 352 354 354 355 359 363 360 361 364 356 358 363 361 361 363 361 362 353 355 346 341 344 346 345 346 346 346 343 342
342 346 349 347 345 347 352 357 360 366 362 356 359 357 356 354 354 355 363 364 362 363 362 367 363 365 357 367 362 363 354 354 352 342 338 334 338 342 344 346 346 342 342
340 344 347 348 345 345 351 358 363 366 366 365 359 358 358 359 355 356 358 362 365 366 370 368 366 370 367 355 364 362 361 352 351 350 341 334 332 339 344 347 347 348 344
340 343 346 348 347 345 349 359 363 367 368 370 360 363 352 351 354 358 357 359 365 365 366 372 368 370 361 369 364 362 361 357 349 351 344 350 346 337 335 343 350 349 347
337 340 344 348 350 349 348 352 364 368 369 370 369 361 361 356 356 355 370 373 371 366 364 367 366 368 362 365 370 365 364 355 351 344 344 347 346 350 343 337 341 350 343
338 340 344 347 349 351 351 353 363 368 370 372 370 371 369 363 356 358 355 355 357 360 369 365 365 368 368 367 368 367 363 362 353 349 345 343 344 346 342 338 341 341 343
342 339 341 343 348 348 350 351 362 367 369 368 368 369 371 375 371 368 359 361 353 352 366 373 369 365 371 369 370 370 365 360 357 352 346 348 350 356 349 347 340 341 340
342 342 340 342 345 347 349 351 357 366 368 368 369 372 373 362 361 366 359 357 355 354 372 366 368 369 369 369 372 365 361 362 359 353 350 349 349 357 355 349 344 336 333
341 343 343 342 344 345 348 350 357 364 368 369 371 372 373 372 362 369 374 361 368 359 365 366 365 368 371 370 374 365 364 363 361 357 354 351 352 355 358 352 353 338 329
340 343 345 345 344 346 346 348 351 363 364 366 371 370 373 375 374 376 375 371 371 373 371 371 369 370 372 372 374 368 363 362 361 355 354 359 355 360 356 351 345 342 336
335 341 345 347 345 346 347 346 347 354 364 365 366 369 371 372 375 373 373 374 375 377 376 374 372 372 371 374 371 369 360 358 358 356 355 353 356 356 354 350 344 341 337
333 339 344 346 346 345 346 347 351 354 361 366 369 372 375 375 374 375 375 376 376 377 376 375 373 372 373 374 367 361 354 343 347 350 352 353 351 351 352 346 349 342 341
336 339 344 346 347 347 349 353 354 352 358 366 371 375 376 378 379 379 378 379 377 374 369 372 373 373 371 373 368 348 341 343 349 351 350 353 350 349 349 342 340 338 335
338 341 346 352 353 355 356 356 353 354 361 365 369 372 375 377 377 379 379 377 377 373 373 374 374 373 371 372 368 345 347 349 350 349 352 350 348 346 348 340 341 334 327
339 342 345 356 359 360 362 362 359 362 365 368 369 371 375 374 375 375 372 372 375 372 372 370 370 370 368 366 367 355 347 353 351 349 351 340 329 324 323 329 326 326 319
339 342 345 348 358 362 363 364 364 367 366 369 369 374 376 373 374 373 371 372 371 370 372 369 367 367 362 342 338 347 352 353 351 348 343 336 328 320 320 320 317 317 317
333 342 346 353 359 359 366 364 367 371 371 373 371 373 375 373 374 370 371 369 370 372 370 367 365 366 362 331 334 338 355 350 351 348 343 338 330 331 327 319 318 315 314
328 333 339 346 353 357 362 365 362 370 367 370 370 374 374 370 372 372 372 373 371 369 366 366 365 367 351 329 330 335 357 350 349 348 341 336 327 320 325 323 322 321 321
334 338 340 343 348 349 363 366 365 367 364 365 369 370 371 370 369 368 371 372 367 368 365 366 365 355 346 324 326 339 352 346 344 340 336 328 319 315 316 323 321 320 320
342 341 340 339 343 353 356 366 365 365 366 365 367 372 373 373 368 371 372 372 368 364 363 357 352 337 350 322 324 339 345 342 336 331 323 314 315 312 312 322 319 317 319
343 344 344 342 343 356 357 361 363 364 366 366 370 371 372 375 375 374 370 365 363 356 352 346 354 353 350 342 319 324 346 339 330 325 319 313 309 308 308 310 317 316 315
345 345 345 344 349 357 360 364 364 367 368 370 368 368 371 367 368 364 362 358 352 348 346 348 350 349 349 325 314 315 323 328 331 328 320 312 306 304 306 311 308 308 309
350 349 344 346 357 360 363 366 372 372 369 369 370 370 374 365 363 356 351 348 348 343 343 347 344 341 337 333 310 311 315 316 329 324 313 306 303 303 307 308 310 310 317
352 351 346 346 357 359 363 366 369 371 372 372 373 372 364 357 356 354 351 347 344 343 347 346 342 340 337 331 328 324 321 315 315 311 311 313 313 309 311 311 315 317 316
356 355 348 355 358 362 366 364 370 374 369 366 361 358 354 352 344 336 346 350 343 341 348 346 343 336 331 328 321 321 324 321 315 319 316 316 317 316 316 316 316 316 317
360 355 353 359 362 364 365 372 374 367 362 356 356 355 349 342 341 339 324 307 306 303 305 317 333 336 314 303 301 300 301 303 305 319 320 317 316 315 315 315 314 316 317
Wind_Speed
20 20 19 19 18 17 16 15 14 11 10 10 10 9 9 8 7 6 4 6 6 6 6 8 5 7 7 4 4 4 8 7 7 8 9 3 3 4 6 5 5 5 4
21 21 21 20 20 19 18 16 15 13 12 10 8 8 8 8 9 7 8 8 8 8 8 8 7 6 7 3 3 5 7 8 6 6 8 8 6 12 11 5 4 3 6
22 22 22 22 21 21 20 17 16 15 14 13 10 7 6 6 6 6 6 9 10 10 10 9 7 7 5 8 6 5 6 7 3 4 2 6 8 12 10 3 4 2 7
22 22 23 23 23 22 21 18 18 16 15 14 12 13 10 10 9 7 9 8 11 12 12 10 9 7 8 6 6 5 6 2 5 3 1 3 4 5 8 8 3 4 3
23 24 25 24 23 22 21 20 18 17 15 15 14 12 13 10 9 8 7 7 6 10 12 11 9 8 8 7 7 7 7 4 5 2 1 6 9 8 8 10 8 2 4
22 22 23 23 22 21 21 20 19 17 18 16 17 15 13 13 10 10 8 9 9 11 12 11 8 8 8 9 7 7 8 9 5 4 5 7 8 6 8 11 12 11 6
23 22 23 22 22 23 23 21 20 20 18 18 17 18 16 12 12 10 9 10 9 9 7 11 8 8 9 9 8 9 8 11 9 7 5 9 7 6 7 7 11 9 9
21 23 23 22 22 23 22 22 20 20 19 19 18 16 16 13 13 12 12 11 11 10 7 8 9 11 11 11 11 7 10 6 8 10 9 9 9 6 6 5 7 10 10
21 23 23 22 22 22 23 22 19 20 19 19 16 17 15 16 14 14 12 12 11 11 7 8 9 11 12 10 8 9 7 11 9 9 9 10 9 6 5 4 3 6 9
20 21 22 23 21 22 21 22 22 19 18 19 17 16 16 15 14 11 11 12 11 12 11 8 11 11 11 11 11 5 6 7 8 6 9 9 8 5 4 2 5 6 9
16 21 22 23 22 21 21 21 21 20 18 18 18 17 15 15 14 13 14 14 13 10 10 11 10 11 12 12 11 13 8 3 7 8 9 11 8 4 3 3 5 4 4
15 19 21 23 22 22 21 21 18 18 18 17 16 15 15 15 15 14 14 13 13 13 12 11 11 12 14 13 10 9 6 6 9 10 9 9 5 5 2 6 5 5 5
12 17 19 20 21 20 19 18 18 19 17 16 16 15 15 13 13 14 14 14 13 13 14 13 13 13 13 13 10 11 13 10 10 8 6 6 3 2 2 5 6 8 8
10 16 15 16 16 16 16 17 18 19 17 16 16 15 15 15 15 14 13 13 12 13 13 13 13 12 11 10 11 10 12 10 5 3 5 2 2 1 3 4 6 8 8
8 13 14 13 14 14 14 14 15 15 15 15 15 16 14 14 14 13 14 13 13 13 13 12 12 9 8 7 10 11 9 5 1 3 1 11 13 18 14 7 7 7 8
12 12 13 15 14 14 14 14 14 13 15 15 16 13 12 12 12 12 12 11 11 11 10 9 10 8 5 8 12 6 4 5 5 5 10 10 12 13 9 9 12 9 7
10 12 15 13 12 13 12 15 13 12 13 13 13 12 12 11 11 11 11 11 10 9 7 8 9 6 5 15 12 6 5 8 5 8 7 6 6 3 5 7 7 5 5
2 8 9 12 14 15 15 13 15 13 14 13 12 12 12 12 11 10 10 9 9 9 8 7 7 7 8 12 12 9 10 8 8 5 9 9 9 9 10 7 6 6 4
7 5 5 4 8 12 13 15 15 14 14 14 13 12 12 11 12 12 10 9 8 8 8 8 8 10 9 9 10 9 10 9 9 9 8 10 10 11 12 5 5 4 5
8 7 7 7 7 9 12 14 15 14 14 13 13 11 11 11 12 11 10 7 10 10 8 11 11 12 13 7 8 7 10 9 9 9 11 17 11 10 10 6 5 4 4
11 11 10 9 7 7 11 13 13 13 12 12 12 12 11 11 11 11 10 10 10 11 11 11 12 12 13 7 4 3 9 9 7 8 7 8 9 8 7 7 4 3 6
11 12 9 9 7 9 11 12 12 11 12 13 13 13 13 11 11 12 11 12 12 12 13 12 12 11 10 7 9 12 12 6 7 6 9 8 6 3 3 3 6 10 8
10 9 10 10 8 10 11 12 11 12 14 15 14 14 13 13 11 11 12 10 11 11 11 12 11 10 8 8 12 13 12 12 5 9 12 11 6 5 5 3 9 11 4
12 10 10 11 10 11 12 13 13 14 16 16 16 14 13 13 11 11 11 10 10 10 9 10 11 11 10 9 8 9 10 13 12 14 9 6 3 1 3 5 4 4 5
12 9 10 10 11 12 14 16 16 16 16 16 12 13 11 11 9 8 7 10 7 8 9 11 12 12 12 11 11 10 9 8 9 9 7 8 6 4 3 3 3 5 4
14 7 8 10 13 14 16 16 16 17 17 16 13 13 11 10 10 11 10 19 10 9 13 8 11 9 15 17 14 12 14 16 13 8 5 4 3 3 3 3 3 4 4
Wind_Direction
189 186 193 185 182 183 183 188 191 182 185 198 199 213 210 200 217 225 183 161 244 200 226 267 211 223 261 300 337 304 284 322 28 314 347 24 250 296 325 317 313 359 320
194 193 189 189 187 184 186 187 191 185 197 200 210 211 219 210 205 209 171 209 219 226 234 249 283 282 302 192 220 277 315 320 59 356 316 344 340 359 320 347 336 263 287
198 191 190 194 191 188 188 188 194 190 196 215 201 211 242 255 240 233 210 198 223 237 237 253 259 300 295 284 179 237 279 308 52 125 19 341 338 332 348 263 239 256 267
197 193 193 194 197 194 189 191 190 197 196 208 203 207 208 219 215 224 214 216 205 229 237 241 248 246 268 304 183 245 262 242 266 289 14 202 260 303 316 324 358 220 282
196 197 194 194 200 197 196 194 191 195 204 196 229 197 221 214 227 229 213 199 232 222 238 240 233 240 246 259 220 213 240 237 243 192 311 315 294 303 311 310 298 171 205
195 198 194 194 197 200 199 196 189 195 199 198 203 230 210 224 237 215 234 227 220 217 218 240 232 231 240 244 206 212 229 251 260 255 296 298 298 318 316 316 309 312 338
192 193 194 193 195 202 200 200 188 191 198 208 204 211 225 222 221 244 228 243 245 237 212 186 220 224 221 247 198 203 234 228 216 248 273 294 277 292 297 306 295 296 324
195 193 193 193 194 199 201 202 191 187 196 204 210 208 211 220 224 230 237 242 243 249 250 193 209 222 237 217 201 204 227 251 242 252 254 279 292 292 296 282 297 307 306
195 194 192 192 193 195 197 201 200 187 194 204 205 210 211 216 221 230 214 235 260 273 243 231 233 225 234 227 201 219 226 214 221 240 263 268 281 291 296 272 291 303 305
193 190 193 192 193 193 196 199 199 191 194 203 206 210 211 213 220 238 223 239 237 220 252 241 219 240 239 222 209 200 232 257 252 223 250 274 275 289 298 264 267 264 265
196 189 190 190 193 192 194 198 201 198 191 204 208 210 208 211 211 218 222 228 232 240 223 230 242 229 234 226 205 206 197 244 248 239 262 273 284 293 277 237 266 290 5
200 185 185 186 188 191 193 193 196 199 195 200 211 206 207 208 209 213 220 220 223 222 225 227 232 236 236 231 201 185 93 245 272 259 278 277 287 297 257 255 39 326 309
214 170 177 182 186 191 191 193 192 198 198 198 201 213 209 207 213 213 217 220 221 222 226 220 226 229 235 237 182 144 176 204 244 265 290 272 320 303 59 0 340 354 351
170 163 173 174 182 186 188 188 194 201 196 194 200 205 208 206 209 215 217 218 221 223 222 223 223 226 239 241 189 157 185 226 274 329 290 243 131 211 34 319 10 32 337
180 161 174 169 180 186 189 191 199 194 193 195 199 206 205 210 213 215 218 222 221 221 225 225 227 216 230 206 220 165 215 252 173 239 239 79 76 66 51 14 25 11 1
157 180 188 185 188 191 190 193 196 197 192 193 204 201 201 209 211 212 216 216 218 219 217 223 230 191 192 173 125 176 192 151 171 145 112 105 94 79 85 92 73 63 29
137 163 188 204 207 203 199 201 195 191 193 197 198 198 194 201 201 205 205 208 208 202 190 203 226 172 159 135 135 155 160 150 166 125 143 148 100 91 76 87 89 119 123
179 166 181 192 206 210 207 207 197 193 195 197 199 191 190 196 192 189 193 191 195 187 184 191 200 150 118 126 145 166 151 130 126 120 83 93 79 43 36 25 10 3 4
329 341 334 212 210 215 202 196 202 186 194 197 197 190 185 186 178 182 180 176 171 156 166 177 121 115 125 131 156 168 127 104 96 89 90 93 80 39 26 358 8 354 20
306 287 279 269 210 232 209 188 197 186 188 190 185 179 174 173 168 164 164 138 135 152 141 102 110 117 134 146 155 170 117 133 113 110 83 61 74 47 20 356 7 7 20
277 271 261 260 247 199 192 190 192 190 179 177 161 156 162 154 150 141 127 128 134 125 115 114 127 127 139 121 28 320 135 130 147 123 116 89 70 54 14 333 26 13 324
282 271 266 243 218 186 183 187 186 172 167 145 145 152 151 154 131 129 127 134 131 121 120 125 123 124 120 90 62 62 87 123 126 136 100 108 111 95 347 299 332 292 277
280 275 259 213 181 180 180 173 157 146 136 140 143 147 144 124 131 129 132 131 131 128 128 137 131 128 130 104 76 69 74 39 124 102 101 124 156 196 152 261 277 281 11
294 281 245 188 179 181 166 146 141 144 144 142 139 137 123 129 132 135 137 133 135 133 142 142 141 144 142 143 137 123 108 98 96 110 129 143 173 298 46 233 243 64 32
288 274 231 176 176 172 151 152 147 149 138 133 127 122 126 130 115 73 125 146 118 142 167 150 152 153 155 157 151 151 151 143 139 139 148 184 189 148 121 86 60 24 35
299 244 210 170 167 163 154 152 145 139 140 134 135 142 130 132 132 123 92 45 66 64 62 75 149 136 119 113 106 103 110 119 156 192 168 136 128 99 96 105 101 74 40